Location: Recife
(8.0585°S, 34.8848°W)
Time: 10:40:21
(UTC-03:00)

Explorer 7 - Pass Details

Date: 23 April 2026
Orbit: 427 x 536 km, 50.2° (Epoch: 14 May)

Event Time Altitude Azimuth Distance (km) Brightness Sun altitude
Rises 09:59:18 0° 235° (SW) 2,487 9.9 61.5°
Reaches altitude 10° 10:01:38 10° 248° (WSW) 1,629 9.1 61.9°
Maximum altitude 10:04:47 26° 307° (NW) 964 8.4 62.5°
Drops below altitude 10° 10:08:01 10° 5° (N) 1,676 9.8 63.0°
Sets 10:10:28 0° 18° (NNE) 2,575 10.6 63.4°
